Regional Weather Roundup
Issued by NWS Kansas City/Pleasant Hill, MO

Home | Current Version | Previous Version | Graphics & Text | Print | Product List | Glossary Off
Versions: 1 2 3 4 5 6 7 8 9 10 11 12 13 14 15 16 17 18 19 20 21 22 23 24 25 26 27 28 29 30 31 32 33 34 35 36 37 38 39 40 41 42 43 44 45 46 47 48 49 50

000
ASUS43 KEAX 191410
RWREAX

WEATHER ROUNDUP FOR EASTERN KANSAS AND NORTHWEST MISSOURI
NATIONAL WEATHER SERVICE KANSAS CITY/PLEASANT HILL MO
900 AM CDT SAT AUG 19 2017

KSZ040-057-103>105-MOZ028-029-037-043-191500-
...KANSAS CITY METROPOLITAN AREA...

CITY           SKY/WX    TMP DP  RH WIND       PRES   REMARKS
K.C. INTL      SUNNY     75  69  81 CALM      29.97R
K.C. DOWNTOWN  SUNNY     76  72  87 CALM      29.95S
LEES SUMMIT    SUNNY     75  72  90 CALM      29.97S
OLATHE - IXD   SUNNY     76  72  87 CALM      29.98R
OLATHE - OJC   SUNNY     79  70  74 N5        29.97S
LAWRENCE       SUNNY     73  71  93 W3        29.97R

$$

MOZ001>008-011>017-020>025-030>033-038>040-044>046-053-054-191500-
...NORTHERN AND CENTRAL MISSOURI...

CITY           SKY/WX    TMP DP  RH WIND       PRES   REMARKS
ST. JOSEPH     FOG       69  69 100 NE6       29.97R VSB 1/4
WARRENSBURG    SUNNY     72  68  88 CALM      29.96S
WHITEMAN AFB   SUNNY     74  74 100 SW5       29.96R
CLINTON        SUNNY     75  72  88 SW3       29.98S
SEDALIA        SUNNY     76  74  93 SW5       29.98R
WARSAW         NOT AVBL
CHILLICOTHE      N/A     74  70  87 CALM      29.96S
KIRKSVILLE     SUNNY     72  67  84 SE3       29.96S

$$

MOZ041-047>049-056>058-063>065-088>090-097-191500-
...EASTERN AND SOUTHERN MISSOURI...

CITY           SKY/WX    TMP DP  RH WIND       PRES   REMARKS
ST. LOUIS INTL MOSUNNY   78  69  73 W7        29.96S
SPIRIT OF STL  MOSUNNY   76  69  79 CALM      29.96R
COLUMBIA       SUNNY     75  70  84 NW7       29.97R
JEFFERSON CITY SUNNY     75  71  87 CALM      29.96R
ROLLA          SUNNY     74  70  87 SW7       30.00R
OSAGE BEACH    SUNNY     73  70  90 W6        29.99R
SPRINGFIELD    SUNNY     77  74  90 SW7       30.00S
BRANSON        MOSUNNY   77  72  83 SW6       30.03R
JOPLIN         PTSUNNY   79  74  84 SW9       29.99F
WEST PLAINS    SUNNY     77  70  79 W13       30.02S

$$

IAZ060-094-KSZ022-034>040-054-083-096-NEZ052-066-093-191500-
...KANSAS...SOUTHEAST NEBRASKA AND IOWA...

CITY           SKY/WX    TMP DP  RH WIND       PRES   REMARKS
TOPEKA         SUNNY     74  69  85 CALM      29.97R
MANHATTAN      SUNNY     72  69  90 CALM      29.98R
EMPORIA        SUNNY     74  67  78 NE5       29.97R
CHANUTE        MOSUNNY   79  74  84 MISG      29.98S
WICHITA        MOSUNNY   80  71  74 S7        29.97S
OMAHA          SUNNY     66  60  81 CALM      29.99R
LINCOLN        SUNNY     68  62  81 N5        29.99F
FALLS CITY     SUNNY     70  64  81 N3        29.97S
LAMONI         SUNNY     70  66  87 NW5       29.96S
DES MOINES     CLOUDY    68  65  90 S6        29.95R

$$




USA.gov is the U.S. government's official web portal to all federal, state and local government web resources and services.